Weather in Shorkasy

Russia / Chuvash Republic     55°40′02″N   47°22′01″E
temp.,
°C
wind,
m/s
gust,
m/s
humid.,
%
clouds,
%
prec.,
mm/h
press.,
hPa
HPBL,
m
15 april, thu
thu1500:00+10sse33870 0.0 102235
03:00+9sse22870 0.0 102113
06:00+9sse228757 0.0 102025
09:00+13s257684 0.0 1020229
12:00+18ssw234886 0.0 10191206
15:00+19nw124098 0.0 10181949
18:00+15n335813 0.0 101834
21:00+11nne368213 0.0 102095
16 april, fri
fri1600:00+9nne6109794 0.0 1020305
03:00+8ne6990100 0.0 1022446
06:00+7ne61090100 0.0 1023490
09:00+8ene6985100 0.0 1024498
12:00+9ne687998 0.0 1025663
15:00+11ene677094 0.0 1025935
18:00+10ene596946 0.0 1025627
21:00+7ne5107432 0.0 1026281
17 april, sat
sat1700:00+5ne511755 0.0 1026277
03:00+3ne512767 0.0 1027266
06:00+3ne5117247 0.0 1028288
09:00+8ene69545 0.0 1028574
12:00+11ene67415 0.0 10271072
15:00+12ene67330 0.0 10261245
18:00+10ene47490 0.0 1026171
21:00+6ne48640 0.0 1027127
18 april, sun
sun1800:00+4ne49720 0.0 1026162
03:00+2ene37760 0.0 1027112
06:00+3ne38770 0.0 1027175
09:00+8ene57560 0.0 1026719
12:00+12ene574426 0.0 10251486
15:00+12ene5741100 0.0 10251814
18:00+10ne61056100 0.0 1026529
21:00+5ene6126767 0.0 1028509
19 april, mon
mon1900:00+3ene6125912 0.0 1029472
03:00+1ene6125787 0.0 1030428
06:000ene6116297 0.0 1031461
09:00+4e7105368 0.0 10311024
12:00+7e793899 0.0 10311661
15:00+7e793399 0.0 10301692
18:00+5e5942100 0.0 1031603
21:00+2ene5125143 0.0 1031349